This is the latest recevied weather packets stored in our database for station/object WX7FGZ-6. If no packets are shown the sender has not sent any weather packets the latest 10 day(s).
| Time | Temp. | Humidity | Pressure | Rain* | Wind** | Luminosity | Snow |
|---|---|---|---|---|---|---|---|
| 1777135748 | 0.56° C | 65% | 1014.2 hPa | 0 mm | - | - | - |
| 1777135448 | 0.56° C | 65% | 1014.3 hPa | 0 mm | - | - | - |
| 1777135148 | 0° C | 65% | 1013.9 hPa | 0 mm | - | - | - |
| 1777134848 | 0° C | 64% | 1014.1 hPa | 0 mm | - | - | - |
| 1777134548 | 0° C | 65% | 1014.2 hPa | 0 mm | - | - | - |
| 1777134248 | 0° C | 66% | 1014 hPa | 0 mm | - | - | - |
| 1777134118 | 0° C | 65% | 1013.8 hPa | 0 mm | - | - | - |
| 1777133948 | 0° C | 65% | 1013.8 hPa | 0 mm | - | - | - |
| 1777133851 | 0° C | 63% | 1013.3 hPa | 0 mm | - | - | - |
| 1777133647 | 0° C | 63% | 1013.3 hPa | 0 mm | - | - | - |
| 1777133347 | 0° C | 63% | 1013.4 hPa | 0 mm | - | - | - |
| 1777132873 | -0.56° C | 64% | 1013.6 hPa | 0 mm | - | - | - |
| 1777132573 | -0.56° C | 64% | 1013.6 hPa | 0 mm | - | - | - |
| 1777132273 | -0.56° C | 64% | 1013.8 hPa | 0 mm | - | - | - |
| 1777131973 | -1.11° C | 62% | 1013.9 hPa | 0 mm | - | - | - |
| 1777131673 | -1.11° C | 59% | 1014.5 hPa | 0 mm | - | - | - |
| 1777131489 | -1.11° C | 62% | 1014.2 hPa | 0 mm | - | - | - |
| 1777131373 | -1.11° C | 62% | 1014.2 hPa | 0 mm | - | - | - |
| 1777131073 | -1.11° C | 66% | 1014.4 hPa | 0 mm | - | - | - |
| 1777130773 | -1.67° C | 64% | 1014.3 hPa | 0 mm | - | - | - |
| 1777130272 | -1.67° C | 69% | 1014.4 hPa | 0 mm | - | - | - |
| 1777129973 | -1.67° C | 70% | 1014.4 hPa | 0 mm | - | - | - |
| 1777129672 | -1.67° C | 70% | 1014.5 hPa | 0 mm | - | - | - |
| 1777129523 | -1.67° C | 70% | 1014.3 hPa | 0 mm | - | - | - |
| 1777129373 | -1.67° C | 70% | 1014.3 hPa | 0 mm | - | - | - |
* Rain latest hour (hover to see other rain measurements)
** Current wind speed in m/s (hover to see current wind gust speed)